Regional Weather Roundup
Issued by NWS

Home | Current Version | Previous Version | Text Only | Print | Product List | Glossary Off
Versions: 1 2 3 4 5 6 7 8 9 10 11 12 13 14 15 16 17 18 19 20 21 22 23 24 25 26 27 28 29 30 31 32 33 34 35 36 37 38 39 40 41 42 43 44 45 46 47 48 49 50

000
ASUS43 KIND 041859
RWRIN

WEATHER ROUNDUP FOR INDIANA
NATIONAL WEATHER SERVICE INDIANAPOLIS IN
300 PM EDT FRI SEP 04 2015

NOTE: "FAIR" INDICATES FEW OR NO CLOUDS BELOW 12,000 FEET WITH NO
SIGNIFICANT WEATHER AND/OR OBSTRUCTIONS TO VISIBILITY.

* - STATION DOES NOT REPORT WEATHER SUCH AS PRECIPITATION OR FOG.

+ - STATION NOT QUALITY CONTROLLED BY THE NATIONAL WEATHER SERVICE.
    USE DATA WITH CAUTION...ESPECIALLY DEWPOINT AND RELATIVE
    HUMIDITY OBSERVATIONS.

INZ001>003-010>013-019-020-042000-
NORTHWEST INDIANA

CITY           SKY/WX    TMP DP  RH WIND       PRES   REMARKS
GARY /AIRPORT/ PTSUNNY   79  68  69 N8        30.02

$$

LMZ046-743>745-042000-
SOUTHERN LAKE MICHIGAN

STATION/POSITION TIME  TEMP    WIND        PRES    WAVE
                       AIR SEA DIR/SP/G            HT
                 (UTC) (F)     (DEG/KT/KT) (MB)    (FT)
BURNS HARBOR     1800   72      30/  7/ 11 1017.6S
MICHIGAN CITY    1800   71     360/  8/  9   N/A
5NW MICH CITY    1800   72 74   10/  6/  8   N/A     2

$$

INZ004-005-014>016-021>024-042000-
NORTH CENTRAL INDIANA

CITY           SKY/WX    TMP DP  RH WIND       PRES   REMARKS
ELKHART        CLOUDY    82  72  69 W5        30.02F
GOSHEN         CLOUDY    82  71  69 N3        30.02S
SOUTH BEND     MOSUNNY   81  71  71 NW6       30.02F

$$

INZ006>009-017-018-025>027-042000-
NORTHEAST INDIANA

CITY           SKY/WX    TMP DP  RH WIND       PRES   REMARKS
ANGOLA *+      CLOUDY    79  72  78 CALM      30.04S
FORT WAYNE     NOT AVBL

$$

INZ028-029-035-036-043>045-051>053-042000-
WEST CENTRAL INDIANA

CITY           SKY/WX    TMP DP  RH WIND       PRES   REMARKS
CRAWFORDSVL +  MOSUNNY   88  60  37 W5        30.03F
GREENCASTLE +  MOSUNNY   86  63  45 CALM      30.04F
LAFAYETTE      PTSUNNY   92  65  40 W14       29.99F
TERRE HAUTE    PTSUNNY   93  67  42 W8        30.02F HX  96

$$

INZ030>032-037>040-046>048-054>057-064-065-042000-
CENTRAL INDIANA

CITY           SKY/WX    TMP DP  RH WIND       PRES   REMARKS
ANDERSON       PTSUNNY   91  55  29 W8        30.04S
GREENWOOD *+   SUNNY     90  61  37 W6        30.03F
INDIANAPOLIS   MOSUNNY   93  65  39 W12       30.01F HX  95
-EAGLE CREEK   MOSUNNY   91  65  41 VRB7      30.01F
KOKOMO *+      MOSUNNY   90  70  51 NW7       30.01F HX  95
MT COMFORT *+  SUNNY     91  50  24 W6        30.03F
SHELBYVILLE    MOSUNNY   93  65  39 VRB6      30.02F HX  95

$$

INZ033-034-041-042-049-050-058-059-042000-
EAST CENTRAL INDIANA

CITY           SKY/WX    TMP DP  RH WIND       PRES   REMARKS
MUNCIE         SUNNY     88  68  51 W12       30.02F

$$

INZ060-061-067>069-081>083-085>088-042000-
SOUTHWEST INDIANA

CITY           SKY/WX    TMP DP  RH WIND       PRES   REMARKS
EVANSVILLE     MOSUNNY   92  64  39 VRB3      30.03F
HUNTINGBURG *+ MOSUNNY   93  66  40 W7        30.03F HX  96

$$

INZ062-063-066-070>080-084-089>092-042000-
SOUTH CENTRAL AND SOUTHEAST INDIANA

CITY           SKY/WX    TMP DP  RH WIND       PRES   REMARKS
BLOOMINGTON    SUNNY     90  66  45 VRB5      30.04F
MADISON *+     MOSUNNY   93  61  33 W5        30.06F
SEYMOUR +      MOSUNNY   95  64  36 CALM      30.02F HX  97

$$




USA.gov is the U.S. government's official web portal to all federal, state and local government web resources and services.